Location: Caltech
(34.1382°N, 118.1253°W)
Time: 06:30:17
(UTC-07:00)

SL-08 RB Rocket - Visible Passes

Search period start: 06 July 2015 00:00
Search period end: 16 July 2015 00:00
Orbit: 648 x 687 km, 98.1° (Epoch: 05 July)

Date Brightness Start Highest point End Pass type
(mag) Time Alt. Az. Time Alt. Az. Time Alt. Az.
06 Jul 3.5 22:31:35 77° SE 22:31:52 84° ENE 22:36:22 10° N visible
07 Jul 5.5 21:25:48 14° E 21:27:06 16° ENE 21:29:50 10° NNE visible
07 Jul 4.6 23:03:57 40° W 23:03:57 40° W 23:08:06 10° NNW visible
08 Jul 4.5 21:58:10 32° E 21:58:53 34° ENE 22:02:57 10° N visible
08 Jul 5.9 23:36:20 17° W 23:36:20 17° W 23:39:00 10° NW visible
09 Jul 3.5 22:30:33 78° ESE 22:30:46 81° ENE 22:35:15 10° N visible
10 Jul 5.5 21:24:46 14° E 21:26:00 15° ENE 21:28:39 10° NNE visible
10 Jul 4.6 23:02:55 41° W 23:02:55 41° W 23:07:00 10° NNW visible
11 Jul 4.5 21:57:08 31° E 21:57:46 33° ENE 22:01:48 10° N visible
11 Jul 5.9 23:35:18 18° W 23:35:18 18° W 23:37:57 10° NW visible
12 Jul 3.5 22:29:31 78° ESE 22:29:39 79° ENE 22:34:08 10° N visible
13 Jul 5.6 21:23:44 13° E 21:24:53 15° ENE 21:27:27 10° NNE visible
13 Jul 4.5 23:01:53 42° W 23:01:53 42° W 23:05:54 10° NNW visible
14 Jul 4.5 21:56:07 31° E 21:56:39 32° ENE 22:00:40 10° N visible
14 Jul 5.8 23:34:16 18° W 23:34:16 18° W 23:36:53 10° NW visible
15 Jul 3.5 22:28:29 76° E 22:28:32 76° ENE 22:33:00 10° N visible
